BXTK1: Spring River at Baxter Springs

                                SHEF ID:       BXTK1     SPRING R NR BAXTER SPRINGS, KS
STATION TYPE:

PRECIP STAGE RIV-FLOW BAT-LOAD
in ft cfs volt
Ccp-Rev Ccp-Rev Ccp-Rev Ccp-Rev
(America/Chicago)
03/11 00:00 0.00 4.52 2836 12.44
03/11 01:00 0.00 4.50 2787 12.44
03/11 02:00 0.01 4.50 2787 12.40
03/11 03:00 0.00 4.49 2763 12.38
03/11 04:00 0.00 4.49 2763 12.37
03/11 05:00 0.00 4.47 2715 12.34
03/11 06:00 0.00 4.46 2691 12.31
03/11 07:00 0.00 4.45 2667 12.30
03/11 08:00 0.00 4.44 2643 12.28
03/11 09:00 0.00 4.43 2620 12.27
03/11 10:00 0.00 4.42 2596 12.28
03/11 11:00 0.00 4.41 2573 12.60
03/11 12:00 0.00 4.40 2549 13.12
03/11 13:00 0.01 4.39 2526 12.93
03/11 14:00 0.00 4.38 2503 13.34
03/11 15:00 0.00 4.37 2480 13.17
03/11 16:00 0.00 4.36 2457 13.17
03/11 17:00 0.00 4.36 2457 13.59
03/11 18:00 0.00 4.35 2434 13.13
03/11 19:00 0.00 4.34 2412 13.20
03/11 20:00 0.00 4.33 2389 12.57
03/11 21:00 0.00 4.32 2366 12.52
03/11 22:00 0.00 4.32 2366 12.48
03/11 23:00 ---- ---- ---- 12.44
Data processed at Thu 12Mar2026 04:42 GMT

NOTICE: If you are parsing this page

Please convert to using our Data API. Starting early 2026 we will be migrating to: https://water.usace.army.mil with modern pages rendered in JavaScript. When this migration completes you will no longer be able to scrape this page! CWMSDataAPI (CDA)

Timeseries IDs (TSIDs)

TSIDs used from left to right in the data table
BAXT.Precip-Inc.Total.1Hour.1Hour.Ccp-Rev
BAXT.Stage.Inst.1Hour.0.Ccp-Rev
BAXT.Flow.Inst.1Hour.0.Ccp-Rev
BAXT.Volt-Battery Load.Inst.1Hour.0.Ccp-Rev

                            

All information presented herein is the property of the government of the United States of America and may be revised or deleted at any time without prior notice. Dissemination of this information without the expressed written consent of the Public Affairs Office, Tulsa District U.S. Army Corps of Engineers is strictly prohibited. These data are gathered electronically and, as presented, have NOT undergone any form of quality control. These data are NOT guaranteed to be valid or correct.